When you browse on this site, cookies collect data to enhance your experience and personalize the content and advertising you see.
Visit our Privacy Policy to learn more. By continuing to use the site, you agree to this use of cookies and data.
  • In Schweiz
  • Länderverzeichnis
  • Für 7 Tage
  • Wassertemperatur
  • Wetterkarte
  • Widgets
  • user-avatar
    Anmelden

    Stündliche Wetter Abomei

    Heute, 17 Februar, Montag

    Zeit Temperatur Niederschläge Wind Luftdruck Luftfeuchtigkeit
    00:00 +25°C° 0 mm 3 m/S 738 mmHg 89%
    01:00 +25°C° 0 mm 2 m/S 738 mmHg 92%
    02:00 +24°C° 0 mm 1 m/S 737 mmHg 94%
    03:00 +24°C° 0 mm 1 m/S 737 mmHg 97%
    04:00 +25°C° 0 mm 1 m/S 738 mmHg 95%
    05:00 +25°C° 0 mm 1 m/S 738 mmHg 92%
    06:00 +26°C° 0 mm 2 m/S 738 mmHg 90%
    07:00 +27°C° 0 mm 2 m/S 739 mmHg 83%
    08:00 +28°C° 0 mm 2 m/S 739 mmHg 77%
    09:00 +29°C° 0 mm 2 m/S 740 mmHg 70%
    10:00 +32°C° 0 mm 2 m/S 739 mmHg 57%
    11:00 +36°C° 0 mm 2 m/S 739 mmHg 45%
    12:00 +39°C° 0 mm 2 m/S 738 mmHg 32%
    13:00 +39°C° 0 mm 2 m/S 738 mmHg 29%
    14:00 +40°C° 0 mm 2 m/S 737 mmHg 26%
    15:00 +41°C° 0 mm 2 m/S 736 mmHg 23%
    16:00 +38°C° 0 mm 3 m/S 736 mmHg 32%
    17:00 +36°C° 0 mm 4 m/S 736 mmHg 41%
    18:00 +34°C° 0 mm 5 m/S 736 mmHg 50%
    19:00 +32°C° 0 mm 4 m/S 737 mmHg 60%
    20:00 +29°C° 0 mm 4 m/S 737 mmHg 70%
    21:00 +27°C° 0 mm 3 m/S 738 mmHg 80%
    22:00 +27°C° 0 mm 3 m/S 738 mmHg 82%
    23:00 +26°C° 0 mm 3 m/S 738 mmHg 84%

    Morgen, 18 Februar, Dienstag

    Zeit Temperatur Niederschläge Wind Luftdruck Luftfeuchtigkeit
    00:00 +26°C° 0 mm 3 m/S 738 mmHg 86%
    01:00 +25°C° 0 mm 2 m/S 738 mmHg 89%
    02:00 +25°C° 0 mm 2 m/S 738 mmHg 92%
    03:00 +24°C° 0 mm 1 m/S 738 mmHg 94%
    04:00 +24°C° 0 mm 1 m/S 738 mmHg 95%
    05:00 +24°C° 0 mm 1 m/S 738 mmHg 96%
    06:00 +24°C° 0 mm 1 m/S 738 mmHg 96%
    07:00 +26°C° 0 mm 2 m/S 739 mmHg 84%
    08:00 +29°C° 0 mm 3 m/S 739 mmHg 73%
    09:00 +32°C° 0 mm 4 m/S 740 mmHg 61%
    10:00 +35°C° 0 mm 3 m/S 740 mmHg 50%
    11:00 +37°C° 0 mm 2 m/S 739 mmHg 39%
    12:00 +40°C° 0 mm 2 m/S 738 mmHg 28%
    13:00 +41°C° 0 mm 1 m/S 738 mmHg 25%
    14:00 +42°C° 0 mm 1 m/S 737 mmHg 22%
    15:00 +43°C° 0 mm 1 m/S 737 mmHg 19%
    16:00 +39°C° 0 mm 2 m/S 736 mmHg 31%
    17:00 +36°C° 0 mm 4 m/S 736 mmHg 44%
    18:00 +32°C° 0 mm 5 m/S 736 mmHg 57%
    19:00 +30°C° 0 mm 5 m/S 737 mmHg 63%
    20:00 +28°C° 0 mm 4 m/S 737 mmHg 70%
    21:00 +27°C° 0 mm 4 m/S 738 mmHg 77%
    22:00 +26°C° 0 mm 3 m/S 738 mmHg 81%
    23:00 +26°C° 0 mm 3 m/S 738 mmHg 85%

    übermorgen, 19 Februar, Mittwoch

    Zeit Temperatur Niederschläge Wind Luftdruck Luftfeuchtigkeit
    00:00 +25°C° 0 mm 2 m/S 738 mmHg 89%
    01:00 +25°C° 0 mm 2 m/S 738 mmHg 90%
    02:00 +25°C° 0 mm 1 m/S 737 mmHg 92%
    03:00 +24°C° 0 mm 1 m/S 737 mmHg 94%
    04:00 +24°C° 0 mm 1 m/S 737 mmHg 95%
    05:00 +24°C° 0 mm 1 m/S 737 mmHg 96%
    06:00 +24°C° 0 mm 1 m/S 737 mmHg 97%
    07:00 +26°C° 0 mm 1 m/S 738 mmHg 83%
    08:00 +29°C° 0 mm 2 m/S 739 mmHg 70%
    09:00 +31°C° 0 mm 2 m/S 739 mmHg 56%
    10:00 +36°C° 0 mm 2 m/S 739 mmHg 45%
    11:00 +40°C° 0 mm 1 m/S 738 mmHg 35%
    12:00 +40°C° 0 mm 0 m/S 738 mmHg 25%
    13:00 +43°C° 0 mm 1 m/S 737 mmHg 23%
    14:00 +43°C° 0 mm 1 m/S 736 mmHg 21%
    15:00 +43°C° 0 mm 1 m/S 735 mmHg 20%
    16:00 +39°C° 0 mm 2 m/S 735 mmHg 30%
    17:00 +36°C° 0 mm 4 m/S 735 mmHg 41%
    18:00 +33°C° 0 mm 5 m/S 735 mmHg 52%
    19:00 +30°C° 0 mm 4 m/S 735 mmHg 60%
    20:00 +28°C° 0 mm 3 m/S 736 mmHg 68%
    21:00 +27°C° 0 mm 2 m/S 737 mmHg 76%
    22:00 +26°C° 0 mm 3 m/S 737 mmHg 79%
    23:00 +26°C° 0 mm 3 m/S 737 mmHg 82%

    20 Februar, Donnerstag

    Zeit Temperatur Niederschläge Wind Luftdruck Luftfeuchtigkeit
    00:00 +26°C° 0 mm 3 m/S 737 mmHg 85%
    01:00 +25°C° 0 mm 2 m/S 736 mmHg 88%
    02:00 +25°C° 0 mm 1 m/S 736 mmHg 91%
    03:00 +22°C° 0 mm 0 m/S 736 mmHg 93%
    04:00 +24°C° 0 mm 1 m/S 736 mmHg 94%
    05:00 +24°C° 0 mm 1 m/S 736 mmHg 95%
    06:00 +24°C° 0 mm 1 m/S 737 mmHg 96%
    07:00 +26°C° 0 mm 2 m/S 737 mmHg 83%
    08:00 +29°C° 0 mm 2 m/S 738 mmHg 70%
    09:00 +31°C° 0 mm 2 m/S 738 mmHg 57%
    10:00 +36°C° 0 mm 2 m/S 738 mmHg 47%
    11:00 +39°C° 0 mm 1 m/S 738 mmHg 37%
    12:00 +42°C° 0 mm 1 m/S 737 mmHg 27%
    13:00 +41°C° 0 mm 1 m/S 736 mmHg 27%
    14:00 +41°C° 0 mm 2 m/S 736 mmHg 27%
    15:00 +40°C° 0 mm 2 m/S 735 mmHg 27%
    16:00 +38°C° 0 mm 3 m/S 735 mmHg 35%
    17:00 +36°C° 0 mm 4 m/S 735 mmHg 43%
    18:00 +34°C° 0 mm 5 m/S 735 mmHg 50%
    19:00 +32°C° 0 mm 5 m/S 736 mmHg 60%
    20:00 +29°C° 0 mm 4 m/S 736 mmHg 69%
    21:00 +27°C° 0 mm 4 m/S 737 mmHg 78%
    22:00 +27°C° 0 mm 3 m/S 737 mmHg 81%
    23:00 +26°C° 0 mm 3 m/S 737 mmHg 84%

    21 Februar, Freitag

    Zeit Temperatur Niederschläge Wind Luftdruck Luftfeuchtigkeit
    00:00 +26°C° 0 mm 3 m/S 737 mmHg 88%
    01:00 +25°C° 0 mm 2 m/S 736 mmHg 90%
    02:00 +25°C° 0 mm 2 m/S 736 mmHg 92%
    03:00 +25°C° 0 mm 1 m/S 736 mmHg 94%
    04:00 +24°C° 0 mm 1 m/S 736 mmHg 95%
    05:00 +24°C° 0 mm 1 m/S 736 mmHg 96%
    06:00 +24°C° 0 mm 2 m/S 736 mmHg 97%
    13:00 +43°C° 0 mm 1 m/S 736 mmHg 23%
    14:00 +42°C° 0 mm 1 m/S 735 mmHg 22%
    15:00 +42°C° 0 mm 2 m/S 735 mmHg 20%
    16:00 +39°C° 0 mm 3 m/S 735 mmHg 32%
    17:00 +36°C° 0 mm 4 m/S 735 mmHg 45%
    18:00 +33°C° 0 mm 5 m/S 735 mmHg 57%
    19:00 +30°C° 0 mm 4 m/S 735 mmHg 65%
    20:00 +29°C° 0 mm 4 m/S 736 mmHg 73%
    21:00 +27°C° 0 mm 3 m/S 736 mmHg 81%
    22:00 +27°C° 0 mm 3 m/S 736 mmHg 82%
    23:00 +27°C° 0 mm 3 m/S 737 mmHg 84%

    22 Februar, Samstag

    Zeit Temperatur Niederschläge Wind Luftdruck Luftfeuchtigkeit
    00:00 +26°C° 0 mm 3 m/S 737 mmHg 85%
    01:00 +26°C° 0 mm 3 m/S 737 mmHg 87%
    02:00 +26°C° 0 mm 3 m/S 736 mmHg 88%
    03:00 +25°C° 0 mm 3 m/S 736 mmHg 89%
    04:00 +25°C° 0 mm 2 m/S 736 mmHg 90%
    05:00 +25°C° 0 mm 2 m/S 737 mmHg 92%
    06:00 +24°C° 0 mm 1 m/S 737 mmHg 94%
    07:00 +27°C° 0 mm 1 m/S 738 mmHg 81%
    08:00 +29°C° 0 mm 2 m/S 738 mmHg 69%
    09:00 +32°C° 0 mm 2 m/S 739 mmHg 56%
    10:00 +36°C° 0 mm 2 m/S 739 mmHg 46%
    11:00 +39°C° 0 mm 1 m/S 738 mmHg 37%
    12:00 +42°C° 0 mm 1 m/S 738 mmHg 27%
    13:00 +41°C° 0 mm 1 m/S 737 mmHg 26%
    14:00 +41°C° 0 mm 1 m/S 736 mmHg 25%
    15:00 +41°C° 0 mm 1 m/S 735 mmHg 23%
    16:00 +38°C° 0 mm 2 m/S 735 mmHg 34%
    17:00 +36°C° 0 mm 3 m/S 735 mmHg 45%
    18:00 +33°C° 0 mm 4 m/S 735 mmHg 56%
    19:00 +32°C° 0 mm 4 m/S 736 mmHg 63%
    20:00 +29°C° 0 mm 4 m/S 737 mmHg 70%
    21:00 +28°C° 0 mm 4 m/S 737 mmHg 78%
    22:00 +27°C° 0 mm 4 m/S 737 mmHg 80%
    23:00 +27°C° 0 mm 3 m/S 737 mmHg 82%
    Mehr zeigen